Tillbaka till svenska Fidonet
English   Information   Debug  
FILM   0/18
FNEWS_PUBLISH   4482
FN_SYSOP   41747
FN_SYSOP_OLD1   71952
FTP_FIDO   0/2
FTSC_PUBLIC   0/13637
FUNNY   0/4886
GENEALOGY.EUR   0/71
GET_INFO   105
GOLDED   0/408
HAM   0/16100
HOLYSMOKE   0/6791
HOT_SITES   0/1
HTMLEDIT   0/71
HUB203   466
HUB_100   264
HUB_400   39
HUMOR   0/29
IC   0/2851
INTERNET   0/424
INTERUSER   0/3
IP_CONNECT   719
JAMNNTPD   0/233
JAMTLAND   0/47
KATTY_KORNER   0/41
LAN   0/16
LINUX-USER   0/19
LINUXHELP   0/1155
LINUX   0/22125
LINUX_BBS   0/957
mail   18.68
mail_fore_ok   249
MENSA   0/341
MODERATOR   0/102
MONTE   0/992
MOSCOW_OKLAHOMA   0/1245
MUFFIN   0/783
MUSIC   0/321
N203_STAT   936
N203_SYSCHAT   313
NET203   321
NET204   69
NET_DEV   0/10
NORD.ADMIN   0/101
NORD.CHAT   0/2572
NORD.FIDONET   189
NORD.HARDWARE   0/28
NORD.KULTUR   0/114
NORD.PROG   0/32
NORD.SOFTWARE   0/88
NORD.TEKNIK   0/58
NORD   0/453
OCCULT_CHAT   0/93
OS2BBS   0/787
OS2DOSBBS   0/580
OS2HW   0/42
OS2INET   0/37
OS2LAN   0/134
OS2PROG   0/36
OS2REXX   0/113
OS2USER-L   207
OS2   0/4804
OSDEBATE   0/18996
PASCAL   0/490
PERL   0/457
PHP   0/45
POINTS   0/405
POLITICS   0/29554
POL_INC   0/14731
PSION   103
R20_ADMIN   1124
R20_AMATORRADIO   0/2
R20_BEST_OF_FIDONET   13
R20_CHAT   0/893
R20_DEPP   0/3
R20_DEV   399
R20_ECHO2   1399
R20_ECHOPRES   0/35
R20_ESTAT   0/719
R20_FIDONETPROG...
...RAM.MYPOINT
  0/2
R20_FIDONETPROGRAM   0/22
R20_FIDONET   0/248
R20_FILEFIND   0/24
R20_FILEFOUND   0/22
R20_HIFI   0/3
R20_INFO2   3290
R20_INTERNET   0/12940
R20_INTRESSE   0/60
R20_INTR_KOM   0/99
R20_KANDIDAT.CHAT   42
R20_KANDIDAT   28
R20_KOM_DEV   112
R20_KONTROLL   0/13340
R20_KORSET   0/18
R20_LOKALTRAFIK   0/24
R20_MODERATOR   0/1852
R20_NC   76
R20_NET200   245
R20_NETWORK.OTH...
...ERNETS
  0/13
R20_OPERATIVSYS...
...TEM.LINUX
  0/44
R20_PROGRAMVAROR   0/1
R20_REC2NEC   534
R20_SFOSM   0/341
R20_SF   0/108
R20_SPRAK.ENGLISH   0/1
R20_SQUISH   107
R20_TEST   2
R20_WORST_OF_FIDONET   12
RAR   0/9
RA_MULTI   106
RA_UTIL   0/162
REGCON.EUR   0/2056
REGCON   0/13
SCIENCE   0/1206
SF   0/239
SHAREWARE_SUPPORT   0/5146
SHAREWRE   0/14
SIMPSONS   0/169
STATS_OLD1   0/2539.065
STATS_OLD2   0/2530
STATS_OLD3   0/2395.095
STATS_OLD4   0/1692.25
SURVIVOR   0/495
SYSOPS_CORNER   0/3
SYSOP   0/84
TAGLINES   0/112
TEAMOS2   0/4530
TECH   0/2617
TEST.444   0/105
TRAPDOOR   0/19
TREK   0/755
TUB   0/290
UFO   0/40
UNIX   0/1316
USA_EURLINK   0/102
USR_MODEMS   0/1
VATICAN   0/2740
VIETNAM_VETS   0/14
VIRUS   0/378
VIRUS_INFO   0/201
VISUAL_BASIC   0/473
WHITEHOUSE   0/5187
WIN2000   0/101
WIN32   0/30
WIN95   0/4291
WIN95_OLD1   0/70272
WINDOWS   0/1517
WWB_SYSOP   0/419
WWB_TECH   0/810
ZCC-PUBLIC   0/1
ZEC   4

 
4DOS   0/134
ABORTION   0/7
ALASKA_CHAT   0/506
ALLFIX_FILE   0/1313
ALLFIX_FILE_OLD1   0/7997
ALT_DOS   0/152
AMATEUR_RADIO   0/1039
AMIGASALE   0/14
AMIGA   0/331
AMIGA_INT   0/1
AMIGA_PROG   0/20
AMIGA_SYSOP   0/26
ANIME   0/15
ARGUS   0/924
ASCII_ART   0/340
ASIAN_LINK   0/651
ASTRONOMY   0/417
AUDIO   0/92
AUTOMOBILE_RACING   0/105
BABYLON5   0/17862
BAG   135
BATPOWER   0/361
BBBS.ENGLISH   0/382
BBSLAW   0/109
BBS_ADS   0/5290
BBS_INTERNET   0/507
BIBLE   0/3563
BINKD   0/1119
BINKLEY   0/215
BLUEWAVE   0/2173
CABLE_MODEMS   0/25
CBM   0/46
CDRECORD   0/66
CDROM   0/20
CLASSIC_COMPUTER   0/378
COMICS   0/15
CONSPRCY   0/899
COOKING   34293
COOKING_OLD1   0/24719
COOKING_OLD2   0/40862
COOKING_OLD3   0/37489
COOKING_OLD4   0/35496
COOKING_OLD5   9370
C_ECHO   0/189
C_PLUSPLUS   0/31
DIRTY_DOZEN   0/201
DOORGAMES   0/2069
DOS_INTERNET   0/196
duplikat   6002
ECHOLIST   0/18295
EC_SUPPORT   0/318
ELECTRONICS   0/359
ELEKTRONIK.GER   1534
ENET.LINGUISTIC   0/13
ENET.POLITICS   0/4
ENET.SOFT   0/11701
ENET.SYSOP   33971
ENET.TALKS   0/32
ENGLISH_TUTOR   0/2000
EVOLUTION   0/1335
FDECHO   0/217
FDN_ANNOUNCE   0/7068
FIDONEWS   24213
FIDONEWS_OLD1   0/49742
FIDONEWS_OLD2   0/35949
FIDONEWS_OLD3   0/30874
FIDONEWS_OLD4   0/37224
FIDO_SYSOP   12853
FIDO_UTIL   0/180
FILEFIND   0/209
FILEGATE   0/212
Möte HAM, 16100 texter
 lista första sista föregående nästa
Text 725, 792 rader
Skriven 2005-12-16 01:01:13 av Amsat List (1:323/120.0)
Ärende: 
========
SB KEPS @ AMSAT  $ORB05349.O
Orbital Elements  05349.OSCAR

HR AMSAT ORBITAL ELEMENTS FOR OSCAR SATELLITES
FROM WA5QGD FORT WORTH,TX December 15, 2005
Send SUBSCRIBE KEPS/UNSUBSCRIBE KEPS to majordomo@amsat.org only
BID: ORB05349.O
TO ALL RADIO AMATEURS BT

Satellite: AO-07
Catalog number: 07530
Epoch time:      05348.75390607
Element set:    0535
Inclination:      101.6004 deg
RA of node:       031.0935 deg
Eccentricity:    0.0012035
Arg of perigee:   244.5870 deg
Mean anomaly:     115.3959 deg
Mean motion:   12.53571396 rev/day
Decay rate:       -2.8e-07 rev/day^2
Epoch rev:           42227
Checksum:              280

Satellite: AO-10
Catalog number: 14129
Epoch time:      05342.90957027
Element set:    0242
Inclination:      027.4779 deg
RA of node:       359.8204 deg
Eccentricity:    0.6034598
Arg of perigee:   243.7503 deg
Mean anomaly:     043.5047 deg
Mean motion:   02.05867896 rev/day
Decay rate:      -1.16e-06 rev/day^2
Epoch rev:           16913
Checksum:              318

Satellite: UO-11
Catalog number: 14781
Epoch time:      05348.87584606
Element set:     946
Inclination:      098.2073 deg
RA of node:       350.1844 deg
Eccentricity:    0.0009796
Arg of perigee:   133.6954 deg
Mean anomaly:     226.5042 deg
Mean motion:   14.79356153 rev/day
Decay rate:       3.86e-06 rev/day^2
Epoch rev:           16851
Checksum:              335

Satellite: RS-10/11
Catalog number: 18129
Epoch time:      05348.70974128
Element set:    0862
Inclination:      082.9226 deg
RA of node:       104.6247 deg
Eccentricity:    0.0010259
Arg of perigee:   243.1623 deg
Mean anomaly:     116.8487 deg
Mean motion:   13.72768658 rev/day
Decay rate:        5.3e-07 rev/day^2
Epoch rev:           92584
Checksum:              324

Satellite: FO-20
Catalog number: 20480
Epoch time:      05349.48631554
Element set:      90
Inclination:      099.0412 deg
RA of node:       129.4248 deg
Eccentricity:    0.0540202
Arg of perigee:   188.6910 deg
Mean anomaly:     170.4546 deg
Mean motion:   12.83349755 rev/day
Decay rate:       -2.7e-07 rev/day^2
Epoch rev:           74275
Checksum:              303

Satellite: RS-12/13
Catalog number: 21089
Epoch time:      05348.85172545
Element set:      95
Inclination:      082.9204 deg
RA of node:       136.8343 deg
Eccentricity:    0.0027923
Arg of perigee:   297.9023 deg
Mean anomaly:     061.9315 deg
Mean motion:   13.74458094 rev/day
Decay rate:        4.9e-07 rev/day^2
Epoch rev:           74531
Checksum:              320

Satellite: RS-15
Catalog number: 23439
Epoch time:      05348.89204236
Element set:    0964
Inclination:      064.8128 deg
RA of node:       175.2926 deg
Eccentricity:    0.0167003
Arg of perigee:   285.3969 deg
Mean anomaly:     072.8560 deg
Mean motion:   11.27551212 rev/day
Decay rate:       -3.9e-07 rev/day^2
Epoch rev:           45176
Checksum:              322

Satellite: FO-29
Catalog number: 24278
Epoch time:      05348.65714522
Element set:     114
Inclination:      098.5224 deg
RA of node:       013.6535 deg
Eccentricity:    0.0351375
Arg of perigee:   068.4896 deg
Mean anomaly:     295.3325 deg
Mean motion:   13.52917387 rev/day
Decay rate:       -1.6e-07 rev/day^2
Epoch rev:           46059
Checksum:              328

Satellite: SO-33
Catalog number: 25509
Epoch time:      05348.61498925
Element set:    0536
Inclination:      031.4349 deg
RA of node:       092.6944 deg
Eccentricity:    0.0355113
Arg of perigee:   303.1620 deg
Mean anomaly:     053.5412 deg
Mean motion:   14.28066947 rev/day
Decay rate:        9.2e-07 rev/day^2
Epoch rev:           37263
Checksum:              306

Satellite: AO-40
Catalog number: 26609
Epoch time:      05348.06543557
Element set:     648
Inclination:      007.3935 deg
RA of node:       265.0554 deg
Eccentricity:    0.7912561
Arg of perigee:   112.2655 deg
Mean anomaly:     343.1450 deg
Mean motion:   01.25583736 rev/day
Decay rate:       -5.6e-07 rev/day^2
Epoch rev:            2352
Checksum:              302

Satellite: VO-52
Catalog number: 28650
Epoch time:      05349.69605544
Element set:     204
Inclination:      097.8943 deg
RA of node:       060.8197 deg
Eccentricity:    0.0026456
Arg of perigee:   237.4326 deg
Mean anomaly:     122.4356 deg
Mean motion:   14.81008635 rev/day
Decay rate:       2.49e-06 rev/day^2
Epoch rev:            3322
Checksum:              309

/EX
SB KEPS @ AMSAT  $ORB05349.D
Orbital Elements  05349.MICROS

HR AMSAT ORBITAL ELEMENTS FOR THE MICROSATS
FROM WA5QGD FORT WORTH,TX December 15, 2005
Send SUBSCRIBE KEPS/UNSUBSCRIBE KEPS to majordomo@amsat.org only
BID: ORB05349.D
TO ALL RADIO AMATEURS BT

Satellite: UO-14
Catalog number: 20437
Epoch time:      05349.58603047
Element set:     942
Inclination:      098.1963 deg
RA of node:       349.1736 deg
Eccentricity:    0.0011692
Arg of perigee:   016.7266 deg
Mean anomaly:     343.4306 deg
Mean motion:   14.31436702 rev/day
Decay rate:        2.2e-07 rev/day^2
Epoch rev:           82998
Checksum:              311

Satellite: AO-16
Catalog number: 20439
Epoch time:      05348.92801213
Element set:    0627
Inclination:      098.1946 deg
RA of node:       004.1762 deg
Eccentricity:    0.0011735
Arg of perigee:   027.5628 deg
Mean anomaly:     332.6170 deg
Mean motion:   14.31703523 rev/day
Decay rate:        5.2e-07 rev/day^2
Epoch rev:           82995
Checksum:              292

Satellite: WO-18
Catalog number: 20441
Epoch time:      05349.62238365
Element set:     828
Inclination:      098.2011 deg
RA of node:       009.3805 deg
Eccentricity:    0.0012636
Arg of perigee:   024.2634 deg
Mean anomaly:     335.9145 deg
Mean motion:   14.31775084 rev/day
Decay rate:        2.8e-07 rev/day^2
Epoch rev:           83011
Checksum:              283

